CAPE
211 882 1102 975 1059 829 427 562 624 601 624 719 688 584 531 497 450 362 235 151 110 115 137 266 252 235 273 341 351 276 187 93 0 0 0 0 0 0 28 1 0 0 0
454 1133 916 1171 1070 579 576 625 568 583 605 439 357 227 133 67 16 2 0 0 0 0 0 0 0 0 0 3 18 100 252 268 197 67 18 0 0 4 177 9 0 0 0
788 1112 1121 1097 593 529 652 689 548 274 141 83 47 1 2 1 0 0 0 0 0 0 0 0 0 0 0 0 0 0 3 1 0 30 11 5 0 36 330 13 59 0 72
951 1240 1207 783 581 607 766 608 356 164 32 1 2 0 0 0 0 0 0 0 0 0 0 0 0 0 0 0 0 0 0 0 0 0 0 0 0 7 432 102 198 55 22
1016 1169 1026 738 654 905 604 337 172 21 1 0 0 0 0 0 0 0 0 0 0 0 0 0 0 0 0 0 0 0 0 0 0 0 0 0 0 0 201 406 262 93 0
1019 1053 773 548 916 622 403 193 17 0 0 0 0 0 0 0 0 0 0 0 0 0 0 0 0 0 0 0 0 0 0 0 0 0 0 0 0 0 0 135 89 84 43
977 876 698 791 654 429 135 2 0 0 0 0 0 0 0 0 0 0 0 0 0 0 0 0 0 0 0 0 0 0 0 0 0 0 0 0 0 0 176 297 221 145 47
859 821 791 574 377 104 0 0 0 0 0 0 0 0 0 0 0 0 0 0 0 0 0 0 0 0 0 0 0 0 0 0 0 0 8 13 1 78 86 73 62 52 49
607 527 320 164 22 0 0 0 0 0 0 0 0 0 0 0 0 0 0 0 0 0 0 0 0 0 0 0 0 0 0 0 0 0 0 21 20 32 33 40 36 45 59
231 118 23 0 0 0 0 0 0 0 0 0 0 0 0 0 0 0 0 0 0 0 0 0 0 0 0 0 0 0 0 0 0 0 1 26 45 46 43 42 46 45 52
40 3 0 0 0 0 0 0 0 0 0 0 0 0 0 0 0 0 0 0 0 0 0 0 0 0 0 0 0 0 0 0 0 0 0 0 5 20 15 12 37 46 41
0 0 0 0 0 0 0 0 0 0 0 0 0 0 0 0 0 0 0 0 0 0 0 0 0 0 0 0 0 0 0 0 0 0 0 0 0 2 12 26 25 25 44
0 0 0 0 0 0 0 0 0 0 0 0 0 0 0 0 0 0 0 0 0 0 0 0 0 0 0 0 0 0 0 0 0 0 0 0 8 33 45 45 39 36 39
0 0 0 0 0 0 0 0 0 0 0 0 0 0 0 0 0 0 0 0 0 0 0 0 0 0 0 0 0 0 0 0 0 0 0 0 2 18 23 34 40 34 36
0 0 0 0 0 0 0 0 0 0 0 0 0 0 0 0 0 0 0 0 0 0 0 0 0 0 0 0 0 0 0 0 0 0 0 0 0 1 2 5 9 10 10
0 0 0 0 0 0 0 0 0 0 0 0 0 0 0 0 0 0 0 0 0 0 0 0 0 0 0 0 0 0 0 0 0 0 0 0 0 0 0 1 0 2 3
0 0 0 0 0 0 0 0 0 0 0 0 0 0 0 0 0 0 0 0 0 0 0 0 0 0 0 0 0 0 0 0 0 0 0 0 0 0 0 0 0 0 0
0 0 0 0 0 0 0 0 0 0 0 0 0 0 0 0 0 0 0 0 0 0 0 0 0 0 0 0 0 0 0 0 0 0 0 0 0 0 0 0 0 0 0
0 0 0 0 0 0 0 0 0 0 0 0 0 0 0 0 0 0 0 0 0 0 0 0 0 0 0 0 0 0 0 0 0 0 0 0 0 0 0 0 0 0 0
0 0 0 0 0 0 0 0 0 0 0 0 0 0 0 0 0 0 0 0 0 0 0 0 0 0 0 0 0 0 0 0 0 0 0 0 0 0 0 0 0 0 0
0 0 0 0 0 0 0 0 0 0 0 0 0 0 0 0 0 0 0 0 0 0 0 0 0 0 0 0 0 0 0 0 0 0 0 0 0 0 0 0 0 0 0
0 0 0 0 0 0 0 0 0 0 0 0 0 0 0 0 0 0 0 0 0 0 0 0 0 0 0 0 0 0 0 0 0 0 0 0 0 0 0 0 0 0 0
0 0 0 0 0 0 0 0 0 0 0 0 0 0 0 0 0 0 0 0 0 0 0 0 0 0 0 0 0 0 0 0 0 0 0 0 0 0 0 0 0 0 0
0 0 0 0 0 0 0 0 0 0 0 0 0 0 0 0 0 0 0 0 0 0 0 0 0 0 0 0 0 0 0 0 0 0 0 0 0 0 0 0 0 0 0
0 0 0 0 0 0 0 0 0 0 0 0 0 0 0 0 0 0 0 0 0 0 0 0 0 0 0 0 0 0 0 0 0 0 0 0 0 0 0 0 0 0 0
0 0 0 0 0 0 0 0 0 0 0 0 0 0 0 0 0 0 0 0 0 0 0 0 0 0 0 0 0 0 0 0 0 0 0 0 0 0 0 0 0 0 0
CIN
-334 -30 -0 -0 -0 -1 -72 -8 -7 -9 -12 -9 -11 -26 -34 -38 -44 -61 -97 -126 -139 -121 -100 -48 -47 -55 -54 -42 -43 -64 -97 -153 -0 -0 -0 -0 -0 -0 -136 -19 -0 -0 -0
-243 -9 -8 -0 -0 -19 -17 -10 -18 -17 -23 -58 -92 -151 -184 -227 -283 -25 -0 -0 -0 -0 -0 -0 -0 -0 -0 -21 -229 -158 -93 -88 -111 -185 -288 -0 -0 -77 -76 -182 -0 -0 -0
-95 -14 -2 -0 -44 -48 -12 -12 -33 -137 -247 -294 -330 -23 -0 -0 -0 -0 -0 -0 -0 -0 -0 -0 -0 -0 -0 -0 -0 -0 -1 -1 -0 -226 -298 -319 -0 -203 -32 -14 -111 -0 -51
-42 -4 -2 -15 -49 -27 -1 -29 -122 -235 -361 -0 -0 -0 -0 -0 -0 -0 -0 -0 -0 -0 -0 -0 -0 -0 -0 -0 -0 -0 -0 -0 -0 -0 -0 -0 -0 -62 -11 -106 -48 -99 -69
-22 -1 -1 -26 -26 -0 -32 -137 -242 -389 -0 -0 -0 -0 -0 -0 -0 -0 -0 -0 -0 -0 -0 -0 -0 -0 -0 -0 -0 -0 -0 -0 -0 -0 -0 -0 -0 -0 -92 -20 -29 -90 -0
-23 -0 -20 -78 -0 -42 -121 -236 -428 -0 -0 -0 -0 -0 -0 -0 -0 -0 -0 -0 -0 -0 -0 -0 -0 -0 -0 -0 -0 -0 -0 -0 -0 -0 -0 -0 -0 -0 -0 -93 -129 -102 -87
-40 -22 -33 -12 -48 -123 -308 -266 -0 -0 -0 -0 -0 -0 -0 -0 -0 -0 -0 -0 -0 -0 -0 -0 -0 -0 -0 -0 -0 -0 -0 -0 -0 -0 -0 -0 -0 -0 -126 -45 -66 -60 -72
-70 -54 -29 -87 -164 -350 -0 -0 -0 -0 -0 -0 -0 -0 -0 -0 -0 -0 -0 -0 -0 -0 -0 -0 -0 -0 -0 -0 -0 -0 -0 -0 -0 -0 -0 -0 -0 -89 -141 -70 -136 -67 -57
-139 -132 -218 -317 -270 -0 -0 -0 -0 -0 -0 -0 -0 -0 -0 -0 -0 -0 -0 -0 -0 -0 -0 -0 -0 -0 -0 -0 -0 -0 -0 -0 -0 -0 -0 -1 -1 -0 -0 -0 -0 -0 -82
-298 -381 -489 -0 -0 -0 -0 -0 -0 -0 -0 -0 -0 -0 -0 -0 -0 -0 -0 -0 -0 -0 -0 -0 -0 -0 -0 -0 -0 -0 -0 -0 -0 -0 -0 -1 -0 -0 -0 -0 -0 -0 -0
-500 -438 -0 -0 -0 -0 -0 -0 -0 -0 -0 -0 -0 -0 -0 -0 -0 -0 -0 -0 -0 -0 -0 -0 -0 -0 -0 -0 -0 -0 -0 -0 -0 -0 -0 -0 -0 -1 -1 -4 -0 -0 -2
-0 -0 -0 -0 -0 -0 -0 -0 -0 -0 -0 -0 -0 -0 -0 -0 -0 -0 -0 -0 -0 -0 -0 -0 -0 -0 -0 -0 -0 -0 -0 -0 -0 -0 -0 -0 -0 -0 -0 -0 -0 -0 -0
-0 -0 -0 -0 -0 -0 -0 -0 -0 -0 -0 -0 -0 -0 -0 -0 -0 -0 -0 -0 -0 -0 -0 -0 -0 -0 -0 -0 -0 -0 -0 -0 -0 -0 -0 -0 -1 -0 -0 -0 -0 -0 -0
-0 -0 -0 -0 -0 -0 -0 -0 -0 -0 -0 -0 -0 -0 -0 -0 -0 -0 -0 -0 -0 -0 -0 -0 -0 -0 -0 -0 -0 -0 -0 -0 -0 -0 -0 -0 -0 -0 -0 -0 -0 -0 -0
-0 -0 -0 -0 -0 -0 -0 -0 -0 -0 -0 -0 -0 -0 -0 -0 -0 -0 -0 -0 -0 -0 -0 -0 -0 -0 -0 -0 -0 -0 -0 -0 -0 -0 -0 -0 -0 -0 -2 -2 -1 -10 -0
-0 -0 -0 -0 -0 -0 -0 -0 -0 -0 -0 -0 -0 -0 -0 -0 -0 -0 -0 -0 -0 -0 -0 -0 -0 -0 -0 -0 -0 -0 -0 -0 -0 -0 -0 -0 -0 -0 -0 -0 -0 -0 -0
-0 -0 -0 -0 -0 -0 -0 -0 -0 -0 -0 -0 -0 -0 -0 -0 -0 -0 -0 -0 -0 -0 -0 -0 -0 -0 -0 -0 -0 -0 -0 -0 -0 -0 -0 -0 -0 -0 -0 -0 -0 -0 -0
-0 -0 -0 -0 -0 -0 -0 -0 -0 -0 -0 -0 -0 -0 -0 -0 -0 -0 -0 -0 -0 -0 -0 -0 -0 -0 -0 -0 -0 -0 -0 -0 -0 -0 -0 -0 -0 -0 -0 -0 -0 -0 -0
-0 -0 -0 -0 -0 -0 -0 -0 -0 -0 -0 -0 -0 -0 -0 -0 -0 -0 -0 -0 -0 -0 -0 -0 -0 -0 -0 -0 -0 -0 -0 -0 -0 -0 -0 -0 -0 -0 -0 -0 -0 -0 -0
-0 -0 -0 -0 -0 -0 -0 -0 -0 -0 -0 -0 -0 -0 -0 -0 -0 -0 -0 -0 -0 -0 -0 -0 -0 -0 -0 -0 -0 -0 -0 -0 -0 -0 -0 -0 -0 -0 -0 -0 -0 -0 -0
-0 -0 -0 -0 -0 -0 -0 -0 -0 -0 -0 -0 -0 -0 -0 -0 -0 -0 -0 -0 -0 -0 -0 -0 -0 -0 -0 -0 -0 -0 -0 -0 -0 -0 -0 -0 -0 -0 -0 -0 -0 -0 -0
-0 -0 -0 -0 -0 -0 -0 -0 -0 -0 -0 -0 -0 -0 -0 -0 -0 -0 -0 -0 -0 -0 -0 -0 -0 -0 -0 -0 -0 -0 -0 -0 -0 -0 -0 -0 -0 -0 -0 -0 -0 -0 -0
-0 -0 -0 -0 -0 -0 -0 -0 -0 -0 -0 -0 -0 -0 -0 -0 -0 -0 -0 -0 -0 -0 -0 -0 -0 -0 -0 -0 -0 -0 -0 -0 -0 -0 -0 -0 -0 -0 -0 -0 -0 -0 -0
-0 -0 -0 -0 -0 -0 -0 -0 -0 -0 -0 -0 -0 -0 -0 -0 -0 -0 -0 -0 -0 -0 -0 -0 -0 -0 -0 -0 -0 -0 -0 -0 -0 -0 -0 -0 -0 -0 -0 -0 -0 -0 -0
-0 -0 -0 -0 -0 -0 -0 -0 -0 -0 -0 -0 -0 -0 -0 -0 -0 -0 -0 -0 -0 -0 -0 -0 -0 -0 -0 -0 -0 -0 -0 -0 -0 -0 -0 -0 -0 -0 -0 -0 -0 -0 -0
-0 -0 -0 -0 -0 -0 -0 -0 -0 -0 -0 -0 -0 -0 -0 -0 -0 -0 -0 -0 -0 -0 -0 -0 -0 -0 -0 -0 -0 -0 -0 -0 -0 -0 -0 -0 -0 -0 -0 -0 -0 -0 -0
Wind_Speed
5 19 19 21 21 19 20 20 19 19 18 18 19 21 22 23 23 24 24 24 24 24 24 23 21 19 17 14 8 8 13 17 19 20 20 19 19 19 19 20 21 21 21
16 18 18 18 17 17 18 17 17 18 18 18 19 20 21 22 22 22 22 22 22 22 22 22 21 21 20 19 16 18 24 22 19 18 18 18 18 19 20 18 20 20 20
14 17 16 15 14 15 15 16 15 15 16 18 19 20 21 21 22 22 22 22 22 22 22 22 22 23 23 23 22 22 24 23 21 19 18 17 17 19 20 17 17 18 18
11 11 13 12 13 13 14 14 14 17 18 19 20 20 21 21 22 22 22 22 22 22 23 23 23 24 24 24 24 23 22 20 19 18 17 17 17 18 19 16 14 15 17
7 8 11 11 13 12 11 13 15 17 18 19 20 20 21 21 22 22 22 23 23 23 23 24 24 25 25 25 24 24 23 21 18 16 15 16 16 15 16 17 12 13 15
6 7 10 11 11 9 10 14 16 18 18 19 20 20 21 21 22 22 22 23 23 23 24 24 25 25 25 25 25 25 25 24 21 18 15 14 15 14 14 14 14 11 14
5 7 8 9 7 7 8 13 16 16 17 18 19 19 20 21 21 22 22 23 23 23 24 25 25 25 25 25 25 25 25 25 25 24 20 16 15 15 17 20 20 17 17
3 4 6 6 6 4 7 12 15 16 17 17 19 19 20 20 21 21 21 22 23 24 25 26 26 25 25 26 25 25 25 25 25 26 25 23 20 21 22 22 21 21 21
3 2 2 4 4 4 7 11 14 15 16 17 18 19 19 19 20 21 21 22 23 24 25 26 26 26 26 26 25 24 25 25 25 25 25 24 24 23 22 22 22 21 21
4 3 1 2 3 4 7 11 13 13 15 16 17 18 18 19 20 20 21 22 23 24 25 25 26 26 26 26 25 25 25 25 25 25 25 25 25 25 24 24 22 22 21
7 4 2 1 2 6 8 10 12 13 14 16 17 17 18 19 19 20 21 22 23 24 24 25 25 25 25 25 25 25 24 24 24 24 24 26 24 24 24 24 24 23 23
7 6 4 3 1 4 7 9 10 12 14 15 16 17 17 18 19 20 21 22 23 24 24 25 25 25 25 24 23 24 24 24 25 25 25 26 24 23 22 23 23 23 22
9 7 7 5 2 3 5 7 9 11 13 14 15 16 17 18 19 20 20 21 22 23 24 24 25 25 25 24 23 23 23 24 24 25 27 27 24 23 23 24 24 23 23
11 9 5 4 3 4 5 7 9 11 12 14 15 15 16 17 19 20 20 21 22 23 23 24 24 24 24 24 23 23 23 24 24 24 26 27 25 24 24 24 24 24 23
11 10 7 6 5 4 6 7 9 10 12 13 14 15 16 17 18 19 20 21 21 22 23 23 24 24 24 24 22 22 22 23 24 24 25 26 26 25 24 24 24 24 24
13 11 10 9 7 5 6 7 8 10 11 13 14 15 16 17 18 19 19 20 21 22 22 23 24 23 23 23 22 21 22 22 23 24 24 24 26 25 25 24 24 24 24
15 12 11 9 7 6 6 7 8 9 10 12 13 15 16 17 17 18 19 19 20 22 22 22 23 24 23 22 22 21 21 21 22 22 23 23 24 25 25 25 25 25 25
16 14 11 10 10 7 7 7 8 8 10 11 13 14 15 16 17 18 18 19 20 21 22 22 23 23 24 23 21 21 20 20 20 21 21 22 22 23 24 26 26 26 26
18 15 13 10 9 9 8 8 9 9 10 11 13 14 15 16 16 17 18 19 20 21 22 23 23 23 24 24 22 20 19 19 19 19 20 21 21 22 22 24 25 26 26
19 17 14 12 10 8 8 9 10 11 11 12 13 14 14 15 16 17 18 19 20 21 22 22 23 23 24 25 22 21 19 19 19 19 19 19 20 20 21 22 24 24 25
20 18 16 14 12 10 10 11 12 13 12 13 13 13 14 15 16 17 18 19 20 22 23 23 23 25 25 26 25 25 22 19 19 19 18 19 19 19 21 22 23 23 23
19 20 17 16 14 13 13 14 15 13 14 14 14 14 14 15 15 17 19 20 21 22 23 24 25 25 25 26 27 26 27 24 21 20 19 18 18 18 19 20 21 22 22
19 22 20 18 17 15 13 12 13 15 16 16 16 15 15 16 16 17 18 20 22 23 24 24 24 25 26 25 25 25 27 27 27 22 21 20 20 20 20 20 20 21 21
20 19 20 18 17 17 14 15 16 17 17 17 17 16 16 16 17 17 19 21 23 23 24 24 23 24 25 26 25 23 23 24 28 29 23 22 23 22 22 22 22 22 21
23 23 22 21 18 17 15 17 18 18 19 17 17 17 17 17 18 19 20 21 23 23 24 23 23 24 23 25 24 24 24 24 24 25 29 26 25 24 23 23 22 21 20
18 20 23 23 20 17 14 20 20 19 16 16 16 17 18 18 19 20 21 22 23 23 24 23 23 23 23 23 23 24 24 26 26 25 28 29 29 27 25 25 23 22 20
Wind_Direction
114 118 113 114 108 92 87 82 70 64 47 40 42 53 47 46 45 42 44 53 61 50 44 23 7 346 334 320 294 155 104 76 60 53 50 51 47 43 41 35 30 27 24
115 115 111 107 93 86 81 72 63 60 45 39 31 33 32 33 32 34 38 43 45 47 31 4 349 347 336 325 305 314 7 29 46 48 48 49 44 41 34 35 30 27 26
112 112 107 98 85 79 72 68 55 43 36 39 38 41 43 42 42 39 39 41 44 45 34 13 359 358 350 342 332 329 358 17 29 35 40 41 40 33 27 33 37 35 30
107 103 102 92 84 78 72 58 50 56 51 49 47 43 40 40 39 36 34 34 36 36 27 13 10 7 359 352 355 1 14 24 30 34 35 36 35 33 30 36 44 39 32
107 101 98 91 86 76 60 56 60 59 57 55 52 44 39 40 38 36 35 32 32 29 22 15 12 10 5 1 359 1 8 18 28 32 37 35 35 38 37 35 43 43 33
112 100 96 90 82 63 52 61 64 66 60 56 52 47 41 38 34 33 33 31 29 25 20 19 14 11 9 4 3 3 7 13 25 33 40 41 40 42 41 37 35 48 35
117 101 91 86 61 50 44 58 62 51 48 48 48 38 34 33 28 25 23 23 23 21 18 17 15 13 11 7 5 4 11 17 20 26 35 43 45 43 35 31 32 37 30
140 105 89 68 59 31 31 48 58 58 51 46 46 40 33 23 19 18 16 16 14 13 15 16 16 15 11 9 8 11 13 16 21 22 28 36 41 37 32 32 30 30 30
212 144 72 55 48 19 20 47 56 53 49 42 40 39 25 19 17 12 10 9 11 10 13 15 19 18 16 13 13 17 17 16 20 22 26 31 30 30 29 28 26 24 26
231 235 89 46 29 14 29 44 43 39 42 38 35 32 26 20 14 8 4 4 7 8 9 12 16 21 22 21 21 21 21 19 21 21 23 22 24 26 28 24 23 17 17
239 236 248 43 20 39 37 38 32 27 34 39 36 31 22 16 12 6 2 2 4 5 7 9 13 16 21 25 25 23 22 23 22 20 20 11 16 19 19 21 20 14 10
224 238 248 266 356 22 22 24 13 19 28 37 35 30 20 16 10 8 3 0 3 6 7 8 9 14 17 24 28 28 29 27 25 23 18 12 14 16 18 17 17 16 14
223 237 245 253 311 21 354 8 2 15 27 28 29 29 19 12 7 7 2 358 2 5 8 11 11 14 16 21 24 27 29 28 27 24 18 14 17 19 19 17 17 17 14
224 231 235 252 283 314 343 346 4 16 22 21 26 25 18 10 7 6 1 1 0 2 8 10 12 16 17 20 25 26 25 25 25 25 19 17 17 16 13 12 12 11 9
224 230 234 247 269 305 312 336 360 13 14 17 22 21 18 11 5 2 1 0 0 2 5 9 11 15 17 18 23 25 25 22 21 21 22 17 17 16 13 9 4 1 359
226 230 241 252 265 287 306 331 352 6 11 12 18 19 16 11 7 10 1 357 358 359 4 7 10 12 14 17 21 22 19 20 20 18 21 21 19 17 15 12 9 4 359
232 232 240 250 263 279 301 317 341 358 5 5 10 13 12 9 7 11 2 354 355 358 359 4 8 10 11 14 15 16 15 17 17 18 19 20 21 18 17 15 12 7 3
233 235 239 251 261 275 290 308 330 348 355 356 2 6 7 6 1 2 359 355 351 354 354 358 1 4 5 7 8 10 11 13 15 16 15 16 17 18 16 12 9 5 2
236 238 241 248 256 269 286 303 317 331 341 347 352 357 1 3 359 356 352 350 350 353 352 354 356 359 360 0 2 6 7 9 8 9 9 11 13 14 13 9 7 4 2
241 242 244 250 256 269 283 298 306 314 328 335 341 349 357 357 354 350 354 345 346 347 350 354 353 355 355 353 357 359 1 2 2 1 2 4 5 7 6 3 3 2 0
240 242 244 248 256 262 277 287 296 303 318 325 330 342 347 350 349 346 343 343 342 341 342 347 348 345 346 349 348 348 352 357 355 356 357 355 357 358 358 357 357 359 358
238 243 247 251 255 263 273 283 294 302 311 317 324 334 339 341 345 342 338 335 338 338 339 340 342 340 341 347 343 342 340 345 349 350 350 351 350 351 350 351 351 352 352
242 245 248 253 257 262 271 282 294 302 309 311 317 326 330 333 337 338 336 333 332 333 333 336 339 338 338 342 345 343 338 335 339 347 347 346 345 344 343 343 344 344 345
247 253 253 253 257 263 269 277 285 293 304 310 314 323 326 330 332 334 332 330 330 331 332 334 338 338 338 337 341 342 341 338 334 334 342 341 339 338 339 338 336 336 336
248 252 251 254 259 265 270 276 284 293 297 311 313 318 322 327 330 330 330 330 330 331 331 333 334 335 336 336 336 337 336 336 335 332 330 334 336 335 336 334 334 332 331
254 253 254 256 262 267 273 276 281 291 301 310 313 316 318 324 325 327 328 329 331 332 333 334 334 333 333 333 333 333 332 331 331 330 327 329 329 332 334 331 331 330 328